| time (UTC) | temp F | wind direction | speed MPH | gust MPH | rain 1hr in | rain 24hr in | rain mn in | humidity % | barometer mb |
| 20260905081858 | 77 | 130 | 1.0 | 3.0 | 0.00 | 0.00 | 0.00 | 91 | 1055.2 |
| 20260905081353 | 77 | 136 | 1.0 | 4.0 | 0.00 | 0.00 | 0.00 | 91 | 1055.2 |
| 20260905080852 | 77 | 135 | 3.0 | 7.0 | 0.00 | 0.00 | 0.00 | 91 | 1055.4 |
| 20260905080346 | 77 | 113 | 3.0 | 4.0 | 0.00 | 0.00 | 0.00 | 91 | 1055.3 |
| 20260905075845 | 77 | 167 | 2.0 | 3.0 | 0.00 | 0.00 | 0.00 | 91 | 1055.5 |
| 20260905075340 | 77 | 182 | 1.0 | 7.0 | 0.00 | 0.00 | 0.00 | 90 | 1055.4 |
| 20260905074839 | 77 | 168 | 1.0 | 7.0 | 0.00 | 0.00 | 0.00 | 90 | 1055.6 |
| 20260905074335 | 77 | 157 | 2.0 | 3.0 | 0.00 | 0.00 | 0.00 | 90 | 1055.4 |
| 20260905073831 | 77 | 121 | 2.0 | 6.0 | 0.00 | 0.00 | 0.00 | 89 | 1055.5 |
| 20260905073325 | 78 | 140 | 2.0 | 6.0 | 0.00 | 0.00 | 0.00 | 89 | 1055.6 |
| 20260905072820 | 78 | 97 | 2.0 | 4.0 | 0.00 | 0.00 | 0.00 | 89 | 1055.5 |
| 20260905072315 | 78 | 132 | 2.0 | 6.0 | 0.00 | 0.00 | 0.00 | 89 | 1055.7 |
| 20260905071812 | 78 | 151 | 1.0 | 8.0 | 0.00 | 0.00 | 0.00 | 89 | 1055.7 |
| 20260905071307 | 78 | 176 | 2.0 | 4.0 | 0.00 | 0.00 | 0.00 | 88 | 1055.7 |
| 20260905070802 | 78 | 181 | 4.0 | 7.0 | 0.00 | 0.00 | 0.00 | 88 | 1055.5 |
| 20260905070258 | 78 | 164 | 3.0 | 8.0 | 0.00 | 0.00 | 0.00 | 88 | 1055.8 |
| 20260905065756 | 78 | 126 | 2.0 | 6.0 | 0.00 | 0.00 | 0.00 | 88 | 1055.7 |
| 20260905065250 | 78 | 169 | 2.0 | 4.0 | 0.00 | 0.00 | 0.00 | 88 | 1055.6 |
| 20260905064746 | 78 | 158 | 5.0 | 7.0 | 0.00 | 0.00 | 0.00 | 87 | 1055.7 |
| 20260905064242 | 78 | 136 | 2.0 | 8.0 | 0.00 | 0.00 | 0.00 | 87 | 1055.5 |
| 20260905063740 | 78 | 171 | 5.0 | 6.0 | 0.00 | 0.00 | 0.00 | 87 | 1055.6 |
| 20260905063236 | 79 | 189 | 2.0 | 7.0 | 0.00 | 0.00 | 0.00 | 87 | 1055.6 |
| 20260905062732 | 79 | 126 | 3.0 | 9.0 | 0.00 | 0.00 | 0.00 | 86 | 1055.8 |
| 20260905062231 | 79 | 171 | 2.0 | 7.0 | 0.00 | 0.00 | 0.00 | 86 | 1055.9 |
| 20260905061726 | 79 | 185 | 4.0 | 7.0 | 0.00 | 0.00 | 0.00 | 86 | 1055.9 |
| 20260905061220 | 79 | 166 | 2.0 | 4.0 | 0.00 | 0.00 | 0.00 | 86 | 1055.6 |
| 20260905060714 | 79 | 166 | 7.0 | 9.0 | 0.00 | 0.00 | 0.00 | 86 | 1056.0 |
| 20260905060211 | 79 | 146 | 3.0 | 8.0 | 0.00 | 0.00 | 0.00 | 85 | 1055.8 |
| 20260905055709 | 79 | 160 | 4.0 | 6.0 | 0.00 | 0.00 | 0.00 | 85 | 1055.7 |
| 20260905055205 | 79 | 166 | 4.0 | 7.0 | 0.00 | 0.00 | 0.00 | 85 | 1055.7 |
| 20260905054700 | 79 | 205 | 4.0 | 7.0 | 0.00 | 0.00 | 0.00 | 85 | 1055.8 |
| 20260905054156 | 79 | 108 | 3.0 | 6.0 | 0.00 | 0.00 | 0.00 | 84 | 1055.7 |
| 20260905053655 | 79 | 122 | 4.0 | 7.0 | 0.00 | 0.00 | 0.00 | 84 | 1055.8 |
| 20260905053150 | 79 | 204 | 6.0 | 9.0 | 0.00 | 0.00 | 0.00 | 84 | 1055.9 |
| 20260905052645 | 79 | 151 | 3.0 | 7.0 | 0.00 | 0.00 | 0.00 | 84 | 1055.6 |
| 20260905052140 | 79 | 165 | 5.0 | 7.0 | 0.00 | 0.00 | 0.00 | 83 | 1055.9 |
| 20260905051635 | 79 | 136 | 3.0 | 6.0 | 0.00 | 0.00 | 0.00 | 83 | 1055.9 |
| 20260905051131 | 79 | 140 | 3.0 | 9.0 | 0.00 | 0.00 | 0.00 | 83 | 1055.8 |
| 20260905050622 | 80 | 153 | 3.0 | 8.0 | 0.00 | 0.00 | 0.00 | 82 | 1055.8 |
| 20260905050118 | 80 | 172 | 3.0 | 6.0 | 0.00 | 0.00 | 0.00 | 82 | 1055.7 |
| 20260905045612 | 79 | 161 | 4.0 | 6.0 | 0.00 | 0.00 | 0.00 | 82 | 1055.8 |
| 20260905045108 | 80 | 138 | 2.0 | 7.0 | 0.00 | 0.00 | 0.00 | 81 | 1055.9 |
| 20260905044602 | 80 | 135 | 4.0 | 6.0 | 0.00 | 0.00 | 0.00 | 81 | 1055.9 |
| 20260905044056 | 80 | 151 | 4.0 | 6.0 | 0.00 | 0.00 | 0.00 | 81 | 1056.0 |
| 20260905043555 | 80 | 132 | 3.0 | 8.0 | 0.00 | 0.00 | 0.00 | 80 | 1055.9 |
| 20260905043051 | 80 | 140 | 4.0 | 7.0 | 0.00 | 0.00 | 0.00 | 80 | 1056.0 |
| 20260905042549 | 80 | 148 | 2.0 | 4.0 | 0.00 | 0.00 | 0.00 | 79 | 1055.8 |
| 20260905042045 | 80 | 119 | 2.0 | 7.0 | 0.00 | 0.00 | 0.00 | 79 | 1055.8 |
| 20260905041540 | 80 | 196 | 3.0 | 6.0 | 0.00 | 0.00 | 0.00 | 79 | 1056.0 |
| 20260905041036 | 80 | 150 | 2.0 | 6.0 | 0.00 | 0.00 | 0.00 | 78 | 1055.9 |
| 20260905040535 | 80 | 145 | 3.0 | 6.0 | 0.00 | 0.00 | 0.00 | 78 | 1055.6 |
| 20260905040034 | 80 | 114 | 3.0 | 4.0 | 0.00 | 0.00 | 0.00 | 77 | 1055.8 |
| 20260905035529 | 80 | 143 | 2.0 | 6.0 | 0.00 | 0.00 | 0.00 | 77 | 1055.7 |
| 20260905035026 | 80 | 173 | 3.0 | 4.0 | 0.00 | 0.00 | 0.00 | 77 | 1055.8 |
| 20260905034521 | 80 | 117 | 2.0 | 6.0 | 0.00 | 0.00 | 0.00 | 76 | 1055.6 |
| 20260905034021 | 80 | 145 | 4.0 | 6.0 | 0.00 | 0.00 | 0.00 | 76 | 1055.6 |
| 20260905033515 | 80 | 140 | 5.0 | 6.0 | 0.00 | 0.00 | 0.00 | 75 | 1055.7 |
| 20260905033011 | 80 | 131 | 2.0 | 4.0 | 0.00 | 0.00 | 0.00 | 75 | 1055.6 |
| 20260905032506 | 80 | 137 | 4.0 | 4.0 | 0.00 | 0.00 | 0.00 | 75 | 1055.7 |
| 20260905032001 | 80 | 138 | 1.0 | 6.0 | 0.00 | 0.00 | 0.00 | 75 | 1055.7 |
| 20260905031456 | 80 | 151 | 4.0 | 6.0 | 0.00 | 0.00 | 0.00 | 75 | 1055.6 |
| 20260905030951 | 80 | 134 | 2.0 | 3.0 | 0.00 | 0.00 | 0.00 | 75 | 1055.5 |
| 20260905030447 | 80 | 131 | 2.0 | 2.0 | 0.00 | 0.00 | 0.00 | 75 | 1055.6 |
| 20260905025945 | 80 | 133 | 3.0 | 4.0 | 0.00 | 0.00 | 0.00 | 75 | 1055.5 |
| 20260905025441 | 80 | 125 | 3.0 | 4.0 | 0.00 | 0.00 | 0.00 | 74 | 1055.5 |
| 20260905024937 | 80 | 142 | 3.0 | 3.0 | 0.00 | 0.00 | 0.00 | 74 | 1055.4 |
| 20260905024431 | 81 | 126 | 2.0 | 2.0 | 0.00 | 0.00 | 0.00 | 73 | 1055.5 |
| 20260905023926 | 81 | 114 | 2.0 | 3.0 | 0.00 | 0.00 | 0.00 | 73 | 1055.2 |
| 20260905023421 | 81 | 127 | 2.0 | 3.0 | 0.00 | 0.00 | 0.00 | 73 | 1055.0 |
| 20260905022921 | 81 | 134 | 2.0 | 4.0 | 0.00 | 0.00 | 0.00 | 72 | 1055.1 |
| 20260905022416 | 82 | 106 | 2.0 | 3.0 | 0.00 | 0.00 | 0.00 | 71 | 1055.1 |
| 20260905021911 | 82 | 121 | 1.0 | 4.0 | 0.00 | 0.00 | 0.00 | 71 | 1055.0 |
| 20260905021406 | 82 | 122 | 3.0 | 6.0 | 0.00 | 0.00 | 0.00 | 70 | 1055.0 |
| 20260905020902 | 82 | 184 | 2.0 | 4.0 | 0.00 | 0.00 | 0.00 | 70 | 1054.9 |
| 20260905020400 | 82 | 122 | 1.0 | 4.0 | 0.00 | 0.00 | 0.00 | 70 | 1054.9 |
| 20260905015855 | 83 | 147 | 3.0 | 6.0 | 0.00 | 0.00 | 0.00 | 70 | 1054.9 |
| 20260905015354 | 83 | 141 | 4.0 | 6.0 | 0.00 | 0.00 | 0.00 | 69 | 1054.8 |
| 20260905014853 | 83 | 138 | 4.0 | 6.0 | 0.00 | 0.00 | 0.00 | 69 | 1054.8 |
| 20260905014349 | 83 | 136 | 2.0 | 4.0 | 0.00 | 0.00 | 0.00 | 69 | 1054.9 |
| 20260905013844 | 84 | 125 | 4.0 | 7.0 | 0.00 | 0.00 | 0.00 | 68 | 1054.9 |
| 20260905013340 | 84 | 169 | 5.0 | 8.0 | 0.00 | 0.00 | 0.00 | 68 | 1054.8 |
| 20260905012835 | 84 | 125 | 3.0 | 7.0 | 0.00 | 0.00 | 0.00 | 67 | 1054.7 |
| 20260905012330 | 84 | 123 | 9.0 | 10.0 | 0.00 | 0.00 | 0.00 | 67 | 1054.7 |
| 20260905011827 | 85 | 140 | 4.0 | 9.0 | 0.00 | 0.00 | 0.00 | 66 | 1054.6 |
| 20260905011322 | 85 | 160 | 4.0 | 9.0 | 0.00 | 0.00 | 0.00 | 65 | 1054.6 |
| 20260905010817 | 85 | 115 | 4.0 | 6.0 | 0.00 | 0.00 | 0.00 | 65 | 1054.5 |
| 20260905010318 | 85 | 131 | 3.0 | 8.0 | 0.00 | 0.00 | 0.00 | 65 | 1054.4 |
| 20260905005815 | 86 | 202 | 4.0 | 10.0 | 0.00 | 0.00 | 0.00 | 64 | 1054.6 |
| 20260905005310 | 86 | 135 | 5.0 | 10.0 | 0.00 | 0.00 | 0.00 | 64 | 1054.4 |
| 20260905004809 | 86 | 146 | 4.0 | 10.0 | 0.00 | 0.00 | 0.00 | 64 | 1054.3 |
| 20260905004259 | 86 | 137 | 5.0 | 11.0 | 0.00 | 0.00 | 0.00 | 64 | 1054.4 |
| 20260905003754 | 87 | 131 | 7.0 | 11.0 | 0.00 | 0.00 | 0.00 | 62 | 1054.4 |
| 20260905003250 | 87 | 132 | 4.0 | 11.0 | 0.00 | 0.00 | 0.00 | 60 | 1054.4 |
| 20260905002745 | 88 | 130 | 3.0 | 9.0 | 0.00 | 0.00 | 0.00 | 57 | 1054.3 |
| 20260905002240 | 88 | 173 | 5.0 | 8.0 | 0.00 | 0.00 | 0.00 | 55 | 1054.1 |
| 20260905001735 | 88 | 162 | 6.0 | 8.0 | 0.00 | 0.00 | 0.00 | 54 | 1054.2 |
| 20260905001234 | 89 | 141 | 4.0 | 8.0 | 0.00 | 0.00 | 0.00 | 53 | 1053.9 |
| 20260905000729 | 89 | 148 | 4.0 | 8.0 | 0.00 | 0.00 | 0.00 | 51 | 1053.9 |
| 20260905000226 | 89 | 121 | 4.0 | 4.0 | 0.00 | 0.00 | 0.00 | 48 | 1053.8 |
| 20260904235720 | 90 | 150 | 3.0 | 6.0 | 0.00 | 0.00 | 0.00 | 46 | 1053.8 |
| 20260904235214 | 90 | 122 | 6.0 | 8.0 | 0.00 | 0.00 | 0.00 | 45 | 1053.5 |
| 20260904234708 | 91 | 192 | 5.0 | 9.0 | 0.00 | 0.00 | 0.00 | 43 | 1053.5 |
| 20260904234204 | 91 | 165 | 3.0 | 9.0 | 0.00 | 0.00 | 0.00 | 43 | 1053.4 |
| 20260904233700 | 91 | 174 | 4.0 | 8.0 | 0.00 | 0.00 | 0.00 | 42 | 1053.5 |
| 20260904233155 | 91 | 138 | 5.0 | 11.0 | 0.00 | 0.00 | 0.00 | 42 | 1053.5 |
| 20260904232652 | 91 | 201 | 4.0 | 7.0 | 0.00 | 0.00 | 0.00 | 43 | 1053.4 |
| 20260904232148 | 91 | 117 | 7.0 | 10.0 | 0.00 | 0.00 | 0.00 | 44 | 1053.6 |
| 20260904231643 | 91 | 185 | 8.0 | 10.0 | 0.00 | 0.00 | 0.00 | 47 | 1053.4 |
| 20260904231139 | 90 | 119 | 4.0 | 10.0 | 0.00 | 0.00 | 0.00 | 52 | 1053.4 |
| 20260904230638 | 91 | 121 | 5.0 | 10.0 | 0.00 | 0.00 | 0.00 | 50 | 1053.7 |
| 20260904230133 | 91 | 188 | 8.0 | 9.0 | 0.00 | 0.00 | 0.00 | 50 | 1053.8 |
| 20260904225631 | 92 | 170 | 4.0 | 6.0 | 0.00 | 0.00 | 0.00 | 49 | 1053.8 |
| 20260904225126 | 92 | 188 | 3.0 | 10.0 | 0.00 | 0.00 | 0.00 | 50 | 1053.9 |
| 20260904224620 | 92 | 184 | 1.0 | 9.0 | 0.00 | 0.00 | 0.00 | 48 | 1053.9 |
| 20260904224115 | 92 | 165 | 6.0 | 9.0 | 0.00 | 0.00 | 0.00 | 48 | 1053.8 |
| 20260904223614 | 91 | 200 | 6.0 | 8.0 | 0.00 | 0.00 | 0.00 | 50 | 1054.1 |
| 20260904223110 | 91 | 191 | 2.0 | 9.0 | 0.00 | 0.00 | 0.00 | 51 | 1054.1 |
| 20260904222606 | 91 | 113 | 6.0 | 9.0 | 0.00 | 0.00 | 0.00 | 51 | 1054.2 |
| 20260904222101 | 91 | 120 | 7.0 | 10.0 | 0.00 | 0.00 | 0.00 | 52 | 1054.1 |
| 20260904221555 | 91 | 235 | 4.0 | 8.0 | 0.00 | 0.00 | 0.00 | 50 | 1054.2 |
| 20260904221050 | 92 | 170 | 4.0 | 10.0 | 0.00 | 0.00 | 0.00 | 49 | 1054.2 |
| 20260904220549 | 93 | 242 | 5.0 | 9.0 | 0.00 | 0.00 | 0.00 | 46 | 1054.2 |
| 20260904220040 | 91 | 142 | 6.0 | 9.0 | 0.00 | 0.00 | 0.00 | 45 | 1054.1 |
| 20260904215540 | 92 | 129 | 3.0 | 6.0 | 0.00 | 0.00 | 0.00 | 45 | 1054.1 |
| 20260904215035 | 92 | 116 | 9.0 | 14.0 | 0.00 | 0.00 | 0.00 | 43 | 1054.1 |
| 20260904214531 | 92 | 179 | 7.0 | 14.0 | 0.00 | 0.00 | 0.00 | 48 | 1054.2 |
| 20260904214026 | 92 | 170 | 4.0 | 11.0 | 0.00 | 0.00 | 0.00 | 50 | 1054.3 |
| 20260904213524 | 92 | 162 | 6.0 | 10.0 | 0.00 | 0.00 | 0.00 | 53 | 1054.4 |
| 20260904213021 | 92 | 147 | 7.0 | 9.0 | 0.00 | 0.00 | 0.00 | 52 | 1054.2 |
| 20260904212521 | 91 | 138 | 6.0 | 15.0 | 0.00 | 0.00 | 0.00 | 54 | 1054.1 |
| 20260904212016 | 91 | 133 | 10.0 | 15.0 | 0.00 | 0.00 | 0.00 | 55 | 1054.1 |
| 20260904211515 | 91 | 127 | 9.0 | 14.0 | 0.00 | 0.00 | 0.00 | 56 | 1054.4 |
| 20260904211011 | 90 | 135 | 10.0 | 14.0 | 0.00 | 0.00 | 0.00 | 59 | 1054.4 |
| 20260904210510 | 92 | 168 | 7.0 | 11.0 | 0.00 | 0.00 | 0.00 | 56 | 1054.7 |
| 20260904210006 | 91 | 144 | 8.0 | 13.0 | 0.00 | 0.00 | 0.00 | 59 | 1054.5 |
| 20260904205501 | 91 | 115 | 6.0 | 9.0 | 0.00 | 0.00 | 0.00 | 56 | 1054.7 |
| 20260904204958 | 92 | 195 | 4.0 | 7.0 | 0.00 | 0.00 | 0.00 | 56 | 1054.8 |
| 20260904204453 | 91 | 214 | 2.0 | 3.0 | 0.00 | 0.00 | 0.00 | 57 | 1054.8 |
| 20260904203949 | 91 | 210 | 4.0 | 9.0 | 0.00 | 0.00 | 0.00 | 55 | 1055.0 |
| 20260904203446 | 90 | 156 | 3.0 | 10.0 | 0.00 | 0.00 | 0.00 | 56 | 1055.1 |
| 20260904202942 | 91 | 168 | 4.0 | 9.0 | 0.00 | 0.00 | 0.00 | 57 | 1055.0 |
| 20260904202437 | 91 | 44 | 1.0 | 9.0 | 0.00 | 0.00 | 0.00 | 59 | 1055.1 |
| 20260904201933 | 90 | 120 | 7.0 | 11.0 | 0.00 | 0.00 | 0.00 | 61 | 1055.1 |
| 20260904201428 | 90 | 153 | 5.0 | 9.0 | 0.00 | 0.00 | 0.00 | 60 | 1055.1 |
| 20260904200924 | 92 | 146 | 4.0 | 7.0 | 0.00 | 0.00 | 0.00 | 58 | 1055.0 |
| 20260904200423 | 91 | 195 | 4.0 | 10.0 | 0.00 | 0.00 | 0.00 | 58 | 1055.2 |
| 20260904195918 | 90 | 162 | 5.0 | 11.0 | 0.00 | 0.00 | 0.00 | 61 | 1055.3 |
| 20260904195416 | 89 | 151 | 2.0 | 9.0 | 0.00 | 0.00 | 0.00 | 60 | 1055.2 |
| 20260904194916 | 90 | 143 | 8.0 | 11.0 | 0.00 | 0.00 | 0.00 | 60 | 1055.3 |
| 20260904194415 | 90 | 137 | 6.0 | 10.0 | 0.00 | 0.00 | 0.00 | 60 | 1055.5 |
| 20260904193911 | 90 | 181 | 5.0 | 11.0 | 0.00 | 0.00 | 0.00 | 58 | 1055.5 |
| 20260904193406 | 87 | 124 | 4.0 | 13.0 | 0.00 | 0.00 | 0.00 | 65 | 1055.4 |
| 20260904192901 | 89 | 121 | 2.0 | 13.0 | 0.00 | 0.00 | 0.00 | 66 | 1055.6 |
| 20260904192356 | 90 | 166 | 4.0 | 7.0 | 0.00 | 0.00 | 0.00 | 63 | 1055.7 |
| 20260904191853 | 89 | 97 | 6.0 | 10.0 | 0.00 | 0.00 | 0.00 | 65 | 1055.7 |
| 20260904191349 | 90 | 210 | 5.0 | 11.0 | 0.00 | 0.00 | 0.00 | 62 | 1055.9 |
| 20260904190845 | 90 | 165 | 10.0 | 11.0 | 0.00 | 0.00 | 0.00 | 61 | 1055.9 |
| 20260904190341 | 90 | 147 | 4.0 | 7.0 | 0.00 | 0.00 | 0.00 | 61 | 1055.8 |
| 20260904185837 | 90 | 153 | 4.0 | 9.0 | 0.00 | 0.00 | 0.00 | 60 | 1056.0 |
| 20260904185332 | 90 | 199 | 6.0 | 16.0 | 0.00 | 0.00 | 0.00 | 65 | 1056.2 |
| 20260904184827 | 90 | 189 | 4.0 | 8.0 | 0.00 | 0.00 | 0.00 | 60 | 1056.0 |
| 20260904184321 | 89 | 136 | 6.0 | 9.0 | 0.00 | 0.00 | 0.00 | 58 | 1056.1 |
| 20260904183817 | 90 | 191 | 4.0 | 6.0 | 0.00 | 0.00 | 0.00 | 60 | 1056.3 |
| 20260904183312 | 90 | 177 | 6.0 | 9.0 | 0.00 | 0.00 | 0.00 | 66 | 1056.1 |
| 20260904182808 | 89 | 178 | 8.0 | 13.0 | 0.00 | 0.00 | 0.00 | 66 | 1056.0 |
| 20260904182306 | 87 | 133 | 7.0 | 11.0 | 0.00 | 0.00 | 0.00 | 66 | 1056.3 |
| 20260904181758 | 86 | 134 | 7.0 | 9.0 | 0.00 | 0.00 | 0.00 | 68 | 1056.2 |
| 20260904181258 | 87 | 116 | 6.0 | 9.0 | 0.00 | 0.00 | 0.00 | 69 | 1056.4 |
| 20260904180753 | 89 | 187 | 5.0 | 10.0 | 0.00 | 0.00 | 0.00 | 66 | 1056.5 |
| 20260904180249 | 88 | 163 | 9.0 | 10.0 | 0.00 | 0.00 | 0.00 | 68 | 1056.6 |
| 20260904175747 | 87 | 160 | 5.0 | 8.0 | 0.00 | 0.00 | 0.00 | 70 | 1056.7 |
| 20260904175246 | 87 | 163 | 6.0 | 8.0 | 0.00 | 0.00 | 0.00 | 70 | 1056.7 |
| 20260904174741 | 87 | 129 | 5.0 | 8.0 | 0.00 | 0.00 | 0.00 | 69 | 1056.7 |
| 20260904174237 | 86 | 98 | 1.0 | 6.0 | 0.00 | 0.00 | 0.00 | 71 | 1056.7 |
| 20260904173733 | 86 | 126 | 3.0 | 6.0 | 0.00 | 0.00 | 0.00 | 70 | 1056.7 |
| 20260904173232 | 88 | 133 | 4.0 | 8.0 | 0.00 | 0.00 | 0.00 | 67 | 1056.7 |
| 20260904172729 | 89 | 127 | 5.0 | 9.0 | 0.00 | 0.00 | 0.00 | 67 | 1056.8 |
| 20260904172227 | 88 | 169 | 3.0 | 7.0 | 0.00 | 0.00 | 0.00 | 67 | 1056.9 |
| 20260904171723 | 87 | 33 | 1.0 | 7.0 | 0.00 | 0.00 | 0.00 | 68 | 1056.7 |
| 20260904171218 | 87 | 187 | 4.0 | 8.0 | 0.00 | 0.00 | 0.00 | 68 | 1056.5 |
| 20260904170715 | 86 | 189 | 6.0 | 11.0 | 0.00 | 0.00 | 0.00 | 71 | 1056.9 |
| 20260904170210 | 85 | 147 | 3.0 | 7.0 | 0.00 | 0.00 | 0.00 | 71 | 1056.7 |
| 20260904165709 | 85 | 176 | 10.0 | 13.0 | 0.00 | 0.00 | 0.00 | 72 | 1056.7 |
| 20260904165208 | 85 | 179 | 2.0 | 7.0 | 0.00 | 0.00 | 0.00 | 74 | 1056.7 |
| 20260904164704 | 85 | 220 | 4.0 | 8.0 | 0.00 | 0.00 | 0.00 | 73 | 1056.8 |
| 20260904164204 | 84 | 189 | 3.0 | 7.0 | 0.00 | 0.00 | 0.00 | 76 | 1056.6 |
| 20260904163700 | 83 | 164 | 2.0 | 4.0 | 0.00 | 0.00 | 0.00 | 77 | 1056.6 |
| 20260904163155 | 83 | 153 | 6.0 | 8.0 | 0.00 | 0.00 | 0.00 | 78 | 1056.6 |
| 20260904162654 | 83 | 242 | 4.0 | 6.0 | 0.00 | 0.00 | 0.00 | 77 | 1056.8 |
| 20260904162144 | 82 | 178 | 4.0 | 9.0 | 0.00 | 0.00 | 0.00 | 79 | 1056.6 |
| 20260904161639 | 82 | 209 | 4.0 | 8.0 | 0.00 | 0.00 | 0.00 | 79 | 1056.7 |
| 20260904161134 | 83 | 239 | 6.0 | 8.0 | 0.00 | 0.00 | 0.00 | 79 | 1056.7 |
| 20260904160630 | 83 | 208 | 2.0 | 3.0 | 0.00 | 0.00 | 0.00 | 79 | 1056.8 |
| 20260904160125 | 82 | 205 | 2.0 | 7.0 | 0.00 | 0.00 | 0.00 | 80 | 1056.9 |
| 20260904155620 | 82 | 184 | 2.0 | 7.0 | 0.00 | 0.00 | 0.00 | 81 | 1056.8 |
| 20260904155114 | 82 | 153 | 4.0 | 7.0 | 0.00 | 0.00 | 0.00 | 81 | 1056.7 |
| 20260904154607 | 82 | 226 | 2.0 | 7.0 | 0.00 | 0.00 | 0.00 | 82 | 1056.8 |
| 20260904154057 | 82 | 177 | 4.0 | 7.0 | 0.00 | 0.00 | 0.00 | 82 | 1056.6 |
| 20260904153556 | 82 | 169 | 3.0 | 6.0 | 0.00 | 0.00 | 0.00 | 82 | 1056.7 |
| 20260904153053 | 82 | 220 | 2.0 | 6.0 | 0.00 | 0.00 | 0.00 | 84 | 1056.8 |
| 20260904152548 | 81 | 180 | 1.0 | 4.0 | 0.00 | 0.00 | 0.00 | 84 | 1056.7 |
| 20260904152043 | 81 | 257 | 1.0 | 3.0 | 0.00 | 0.00 | 0.00 | 85 | 1056.8 |
| 20260904151538 | 81 | 128 | 2.0 | 10.0 | 0.00 | 0.00 | 0.00 | 86 | 1056.8 |
| 20260904151037 | 81 | 216 | 4.0 | 4.0 | 0.00 | 0.00 | 0.00 | 86 | 1056.7 |
| 20260904150532 | 81 | 177 | 2.0 | 10.0 | 0.00 | 0.00 | 0.00 | 87 | 1056.8 |
| 20260904150027 | 80 | 144 | 2.0 | 6.0 | 0.00 | 0.00 | 0.00 | 87 | 1057.0 |
| 20260904145526 | 80 | 171 | 1.0 | 3.0 | 0.00 | 0.00 | 0.00 | 88 | 1057.2 |
| 20260904145022 | 80 | 180 | 1.0 | 2.0 | 0.00 | 0.00 | 0.00 | 88 | 1057.2 |
| 20260904144518 | 80 | 212 | 3.0 | 7.0 | 0.00 | 0.00 | 0.00 | 88 | 1057.0 |
| 20260904144014 | 80 | 128 | 1.0 | 3.0 | 0.00 | 0.00 | 0.00 | 89 | 1057.2 |
| 20260904143509 | 80 | 188 | 4.0 | 7.0 | 0.00 | 0.00 | 0.00 | 89 | 1057.0 |
| 20260904143006 | 80 | 189 | 3.0 | 7.0 | 0.00 | 0.00 | 0.00 | 90 | 1056.9 |
| 20260904142502 | 79 | 133 | 4.0 | 7.0 | 0.00 | 0.00 | 0.00 | 90 | 1057.0 |
| 20260904142002 | 79 | 155 | 2.0 | 6.0 | 0.00 | 0.00 | 0.00 | 91 | 1057.2 |
| 20260904141456 | 79 | 200 | 2.0 | 6.0 | 0.00 | 0.00 | 0.00 | 92 | 1056.8 |
| 20260904140953 | 78 | 146 | 4.0 | 6.0 | 0.00 | 0.00 | 0.00 | 92 | 1056.7 |
| 20260904140452 | 78 | 129 | 2.0 | 6.0 | 0.00 | 0.00 | 0.00 | 93 | 1056.8 |
| 20260904135951 | 78 | 133 | 4.0 | 4.0 | 0.00 | 0.00 | 0.00 | 93 | 1056.7 |
| 20260904135446 | 78 | 111 | 4.0 | 8.0 | 0.00 | 0.00 | 0.00 | 93 | 1056.8 |
| 20260904134942 | 78 | 163 | 0.0 | 6.0 | 0.00 | 0.00 | 0.00 | 93 | 1056.5 |
| 20260904134437 | 78 | 168 | 6.0 | 10.0 | 0.00 | 0.00 | 0.00 | 93 | 1056.5 |
| 20260904133931 | 78 | 131 | 1.0 | 3.0 | 0.00 | 0.00 | 0.00 | 94 | 1056.7 |
| 20260904133426 | 78 | 124 | 2.0 | 2.0 | 0.00 | 0.00 | 0.00 | 94 | 1056.7 |
| 20260904132922 | 78 | 165 | 2.0 | 4.0 | 0.00 | 0.00 | 0.00 | 94 | 1056.6 |
| 20260904132417 | 78 | 151 | 0.0 | 1.0 | 0.00 | 0.00 | 0.00 | 94 | 1056.7 |
| 20260904131916 | 78 | 128 | 2.0 | 4.0 | 0.00 | 0.00 | 0.00 | 94 | 1056.6 |
| 20260904131412 | 77 | 193 | 3.0 | 6.0 | 0.00 | 0.00 | 0.00 | 95 | 1056.6 |
| 20260904130908 | 77 | 153 | 4.0 | 6.0 | 0.00 | 0.00 | 0.00 | 95 | 1056.3 |
| 20260904130406 | 77 | 172 | 5.0 | 6.0 | 0.00 | 0.00 | 0.00 | 95 | 1056.4 |
| 20260904125901 | 77 | 151 | 6.0 | 9.0 | 0.00 | 0.00 | 0.00 | 95 | 1056.2 |
| 20260904125358 | 77 | 131 | 5.0 | 7.0 | 0.00 | 0.00 | 0.00 | 95 | 1056.2 |
| 20260904124857 | 77 | 182 | 6.0 | 8.0 | 0.00 | 0.00 | 0.00 | 95 | 1056.3 |
| 20260904124354 | 77 | 170 | 5.0 | 11.0 | 0.00 | 0.00 | 0.00 | 95 | 1056.0 |
| 20260904123848 | 77 | 136 | 5.0 | 7.0 | 0.00 | 0.00 | 0.00 | 96 | 1056.1 |
| 20260904123343 | 77 | 128 | 2.0 | 6.0 | 0.00 | 0.00 | 0.00 | 97 | 1056.0 |
| 20260904122838 | 77 | 136 | 3.0 | 8.0 | 0.00 | 0.00 | 0.00 | 97 | 1056.0 |
| 20260904122333 | 77 | 120 | 3.0 | 8.0 | 0.00 | 0.00 | 0.00 | 97 | 1056.0 |
| 20260904121827 | 77 | 157 | 2.0 | 3.0 | 0.00 | 0.00 | 0.00 | 97 | 1055.7 |
| 20260904121323 | 76 | 156 | 2.0 | 4.0 | 0.00 | 0.00 | 0.00 | 97 | 1055.7 |
| 20260904120820 | 77 | 163 | 2.0 | 3.0 | 0.00 | 0.00 | 0.00 | 97 | 1055.6 |
| 20260904120310 | 77 | 154 | 4.0 | 8.0 | 0.00 | 0.00 | 0.00 | 96 | 1055.3 |
| 20260904115804 | 77 | 113 | 2.0 | 8.0 | 0.00 | 0.00 | 0.00 | 95 | 1055.4 |
| 20260904115259 | 77 | 132 | 2.0 | 7.0 | 0.00 | 0.00 | 0.00 | 94 | 1055.5 |
| 20260904114749 | 77 | 136 | 2.0 | 7.0 | 0.00 | 0.00 | 0.00 | 94 | 1055.3 |
| 20260904114248 | 77 | 134 | 4.0 | 6.0 | 0.00 | 0.00 | 0.00 | 94 | 1055.4 |
| 20260904113744 | 77 | 134 | 1.0 | 6.0 | 0.00 | 0.00 | 0.00 | 94 | 1055.2 |
| 20260904113243 | 77 | 141 | 4.0 | 6.0 | 0.00 | 0.00 | 0.00 | 94 | 1055.2 |
| 20260904112737 | 77 | 131 | 3.0 | 4.0 | 0.00 | 0.00 | 0.00 | 94 | 1055.1 |
| 20260904112232 | 77 | 142 | 3.0 | 4.0 | 0.00 | 0.00 | 0.00 | 94 | 1055.1 |
| 20260904111723 | 77 | 129 | 2.0 | 4.0 | 0.00 | 0.00 | 0.00 | 94 | 1055.2 |
| 20260904111219 | 77 | 160 | 2.0 | 7.0 | 0.00 | 0.00 | 0.00 | 93 | 1055.1 |
| 20260904110714 | 77 | 137 | 1.0 | 3.0 | 0.00 | 0.00 | 0.00 | 93 | 1055.0 |
| 20260904110213 | 77 | 147 | 3.0 | 4.0 | 0.00 | 0.00 | 0.00 | 93 | 1055.0 |
| 20260904105708 | 77 | 83 | 4.0 | 7.0 | 0.00 | 0.00 | 0.00 | 93 | 1055.1 |
| 20260904105203 | 77 | 190 | 1.0 | 4.0 | 0.00 | 0.00 | 0.00 | 93 | 1054.9 |
| 20260904104658 | 77 | 158 | 2.0 | 6.0 | 0.00 | 0.00 | 0.00 | 93 | 1054.8 |
| 20260904104154 | 77 | 194 | 1.0 | 3.0 | 0.00 | 0.00 | 0.00 | 93 | 1054.7 |
| 20260904103650 | 77 | 208 | 3.0 | 4.0 | 0.00 | 0.00 | 0.00 | 93 | 1054.7 |
| 20260904103145 | 77 | 205 | 5.0 | 6.0 | 0.00 | 0.00 | 0.00 | 93 | 1054.6 |
| 20260904102641 | 77 | 210 | 4.0 | 6.0 | 0.00 | 0.00 | 0.00 | 93 | 1054.7 |
| 20260904102136 | 77 | 154 | 2.0 | 7.0 | 0.00 | 0.00 | 0.00 | 93 | 1054.8 |
| 20260904101633 | 78 | 160 | 2.0 | 4.0 | 0.00 | 0.00 | 0.00 | 93 | 1054.8 |
| 20260904101128 | 78 | 166 | 3.0 | 4.0 | 0.00 | 0.00 | 0.00 | 93 | 1054.9 |
| 20260904100624 | 78 | 180 | 4.0 | 6.0 | 0.00 | 0.00 | 0.00 | 93 | 1054.7 |
| 20260904100119 | 78 | 154 | 2.0 | 4.0 | 0.00 | 0.00 | 0.00 | 92 | 1054.7 |
| 20260904095614 | 78 | 131 | 2.0 | 4.0 | 0.00 | 0.00 | 0.00 | 92 | 1054.9 |
| 20260904095109 | 78 | 123 | 3.0 | 4.0 | 0.00 | 0.00 | 0.00 | 92 | 1054.8 |
| 20260904094609 | 78 | 164 | 1.0 | 7.0 | 0.00 | 0.00 | 0.00 | 92 | 1054.7 |
| 20260904094103 | 78 | 191 | 5.0 | 7.0 | 0.00 | 0.00 | 0.00 | 92 | 1054.5 |
| 20260904093600 | 78 | 194 | 3.0 | 8.0 | 0.00 | 0.00 | 0.00 | 92 | 1054.5 |
| 20260904093055 | 78 | 192 | 2.0 | 6.0 | 0.00 | 0.00 | 0.00 | 92 | 1054.6 |
| 20260904092551 | 78 | 200 | 3.0 | 4.0 | 0.00 | 0.00 | 0.00 | 92 | 1054.5 |
| 20260904092047 | 78 | 176 | 2.0 | 6.0 | 0.00 | 0.00 | 0.00 | 91 | 1054.6 |
| 20260904091543 | 78 | 165 | 2.0 | 2.0 | 0.00 | 0.00 | 0.00 | 91 | 1054.6 |
| 20260904091042 | 78 | 151 | 1.0 | 3.0 | 0.00 | 0.00 | 0.00 | 91 | 1054.7 |
| 20260904090538 | 78 | 159 | 1.0 | 4.0 | 0.00 | 0.00 | 0.00 | 91 | 1054.7 |
| 20260904090033 | 78 | 152 | 1.0 | 4.0 | 0.00 | 0.00 | 0.00 | 91 | 1054.6 |
| 20260904085528 | 78 | 182 | 2.0 | 4.0 | 0.00 | 0.00 | 0.00 | 90 | 1054.8 |
| 20260904085027 | 78 | 175 | 2.0 | 4.0 | 0.00 | 0.00 | 0.00 | 90 | 1054.9 |
| 20260904084523 | 78 | 191 | 1.0 | 3.0 | 0.00 | 0.00 | 0.00 | 90 | 1054.7 |
| 20260904084020 | 78 | 135 | 2.0 | 3.0 | 0.00 | 0.00 | 0.00 | 90 | 1054.5 |
| 20260904083515 | 78 | 185 | 5.0 | 7.0 | 0.00 | 0.00 | 0.00 | 90 | 1054.4 |
| 20260904083011 | 78 | 173 | 3.0 | 8.0 | 0.00 | 0.00 | 0.00 | 90 | 1054.5 |
| 20260904082506 | 78 | 217 | 5.0 | 7.0 | 0.00 | 0.00 | 0.00 | 90 | 1054.5 |
| 20260904082007 | 78 | 178 | 3.0 | 6.0 | 0.00 | 0.00 | 0.00 | 90 | 1054.5 |